HSKSAT (55182 NORAD) Tracking and Keplerian Element Data

This shows tracking and keplerian element data for the satellite.

Feedback or suggestion? Click here.




ElementValue
Catalog55182
NameHSKSAT
Epoch Orbit109
Epoch Day13.30324872
Epoch Year2023
RAAN15.6864
Inclination51.6419
Eccentricity0.000284
Argument of Perigee204.3389
Mean Anonmoly155.7467
Mean Motion15.51346832
Decay Rate0.00053376
L11 55182U 98067UZ 23013.30324872 .00053376 00000+0 89317-3 0 9993
L22 55182 51.6419 15.6864 0002840 204.3389 155.7467 15.51346832 1095



Live tracking and technical data element details for HSKSAT (NORAD 55182). HSKSAT can be tracked NOW for your location showing map with azimuth and elevation plus other details from your city location.







IsCatalogInMostPopularTable: catalog: 55182, numindb: 4
Update: records affected: 1



GetName: 55182 HSKSAT

Hit Count: updated at: Tue, 07 Feb 2023 14:35:04 GMT